Location: Härggis
(46.9540°N, 8.4897°E)
Time: 01:54:00
(UTC+00:00)

Cosmos 1125 Rocket - Pass Details

Date: 27 May 2022
Orbit: 757 x 780 km, 74.0° (Epoch: 26 June)

Event Time Altitude Azimuth Distance (km) Brightness Sun altitude
Exits shadow 00:43:33 28° 243° (WSW) 1,384 4.4 -19.4°
Maximum altitude 00:45:50 46° 298° (WNW) 1,017 4.1 -19.3°
Drops below altitude 10° 00:50:50 10° 12° (NNE) 2,300 7.2 -19.0°
Sets 00:53:19 0° 19° (NNE) 3,232 8.4 -18.8°
